Weather reports worldwide

Advertisment
Sennybridge, United Kingdom (3507): temperature & dewpoint: 24.09.2020 23:00:00 - 30.09.2020 23:00:00 (BST)Sennybridge, United Kingdom (3507): temperature -20cm & temperature -100cm: 24.09.2020 23:00:00 - 30.09.2020 23:00:00 (BST)Sennybridge, United Kingdom (3507): wind speed & gusts: 24.09.2020 23:00:00 - 30.09.2020 23:00:00 (BST)Sennybridge, United Kingdom (3507): wind direction: 24.09.2020 23:00:00 - 30.09.2020 23:00:00 (BST)Sennybridge, United Kingdom (3507): reduced air pressure: 24.09.2020 23:00:00 - 30.09.2020 23:00:00 (BST)Sennybridge, United Kingdom (3507): visibility: 24.09.2020 23:00:00 - 30.09.2020 23:00:00 (BST)Sennybridge, United Kingdom (3507): precipitation: 24.09.2020 23:00:00 - 30.09.2020 23:00:00 (BST)
Date & Time tt [°C] td [°C] tt -20cm [°C] tt -100cm [°C] ff [km/h] ff [kn] fx [km/h] fx [kn] dd ppp [hPa] vv [km] rr [mm]
30.09.2020 23:00:00 9,7 9,6 - - 11 6 - - WSW 1000,0 3,7 0,0
30.09.2020 22:00:00 8,6 8,1 - - 4 2 - - SW 1000,2 50 0,0
30.09.2020 21:00:00 10,1 9,8 - - 4 2 - - W 1000,0 28 0,2
30.09.2020 20:00:00 11,0 10,8 - - 11 6 - - WSW 999,7 12 0,4
30.09.2020 19:00:00 11,3 10,9 - - 11 6 - - SW 999,7 18 0,0
30.09.2020 18:00:00 11,9 11,3 - - 15 8 - - SW 999,6 35 0,6
30.09.2020 17:00:00 12,1 11,8 - - 11 6 - - SW 999,8 19 0,0
30.09.2020 16:00:00 11,8 11,5 - - 16 9 - - SW 1000,0 50 2,4
30.09.2020 15:00:00 12,0 11,6 - - 22 12 - - SW 999,6 3,1 6,4
30.09.2020 14:00:00 12,0 11,6 - - 22 12 - - S 1000,3 8 0,8
30.09.2020 13:00:00 11,6 11,2 - - 26 14 - - S 1001,6 35 2,8
30.09.2020 12:00:00 11,4 11,1 - - 24 13 - - S 1002,5 12 1,2
30.09.2020 11:00:00 11,0 10,7 - - 28 15 46 25 S 1003,0 5 2,6
30.09.2020 10:00:00 10,5 9,4 - - 29 16 52 28 S 1003,8 24 0,0
30.09.2020 09:00:00 10,0 8,8 - - 31 17 46 25 S 1004,6 30 0,2
30.09.2020 08:00:00 10,0 8,0 - - 24 13 - - S 1005,5 35 0,0
30.09.2020 07:00:00 10,1 8,0 - - 26 14 - - SSW 1006,3 22 0,0
30.09.2020 06:00:00 10,2 7,9 - - 24 13 - - S 1007,3 40 0,0
30.09.2020 05:00:00 10,5 7,7 - - 22 12 - - SSW 1008,1 35 0,0
30.09.2020 04:00:00 10,1 7,9 - - 18 10 - - SSW 1008,9 45 0,0
30.09.2020 03:00:00 10,4 8,4 - - 22 12 - - S 1010,0 45 0,0
30.09.2020 02:00:00 10,1 8,6 - - 15 8 - - SSW 1011,1 30 0,0
30.09.2020 01:00:00 10,0 7,9 - - 9 5 - - S 1012,0 50 0,0
30.09.2020 00:00:00 9,6 7,8 - - 11 6 - - S 1013,1 45 0,0
29.09.2020 23:00:00 8,6 7,4 - - 9 5 - - SSW 1013,9 30 0,0
29.09.2020 22:00:00 8,5 7,1 - - 8 4 - - S 1014,6 45 0,0
29.09.2020 21:00:00 8,1 7,3 - - 9 5 - - SSE 1014,9 30 0,0
29.09.2020 20:00:00 8,1 7,0 - - 5 3 - - S 1015,5 30 0,0
29.09.2020 19:00:00 10,0 6,6 - - 13 7 - - WSW 1015,5 45 0,0
29.09.2020 18:00:00 11,7 7,7 - - 13 7 - - WSW 1015,1 40 0,0
29.09.2020 17:00:00 13,2 8,0 - - 11 6 - - SW 1015,1 35 0,0
29.09.2020 16:00:00 13,4 6,7 - - 13 7 - - WSW 1015,6 35 0,0
29.09.2020 15:00:00 14,2 6,5 - - 11 6 - - W 1015,9 35 0,0
29.09.2020 14:00:00 15,2 5,8 - - 11 6 - - SW 1016,1 29 0,0
29.09.2020 13:00:00 14,6 5,6 - - 8 4 - - SW 1016,6 25 0,0
29.09.2020 12:00:00 14,3 10,1 - - 4 2 - - WSW 1016,6 50 0,0
29.09.2020 11:00:00 11,4 11,4 - - 2 1 - - NNE 1017,5 7 0,0
29.09.2020 10:00:00 9,0 9,0 13,2 13,2 4 2 - - WSW 1017,9 0,2 0,0
29.09.2020 09:00:00 8,3 8,3 - - 4 2 - - WSW 1017,9 0,1 0,2
29.09.2020 08:00:00 6,1 6,1 - - 0 0 - - N 1017,7 0,1 0,0
29.09.2020 07:00:00 5,9 5,9 - - 4 2 - - SE 1017,4 0,2 0,0
29.09.2020 06:00:00 4,3 4,2 - - 0 0 - - N 1017,3 0,3 0,0
29.09.2020 05:00:00 4,8 4,7 - - 0 0 - - N 1017,0 0,2 0,0
29.09.2020 04:00:00 5,2 5,1 - - 4 2 - - S 1017,0 2,6 0,0
29.09.2020 03:00:00 5,6 5,4 - - 2 1 - - E 1016,8 3,3 0,0
29.09.2020 02:00:00 7,0 6,7 - - 0 0 - - N 1016,4 6 0,0
29.09.2020 01:00:00 9,5 8,8 - - 2 1 - - N 1015,8 21 0,0
29.09.2020 00:00:00 10,9 10,0 - - 2 1 - - N 1015,6 35 0,0
28.09.2020 23:00:00 11,5 10,8 - - 2 1 - - NE 1015,4 45 0,0
28.09.2020 22:00:00 12,1 11,5 - - 2 1 - - NNW 1015,0 50 0,0
28.09.2020 21:00:00 12,4 11,9 - - 2 1 - - WNW 1014,5 50 0,0
28.09.2020 20:00:00 13,1 12,6 - - 4 2 - - NNW 1014,0 40 0,0
28.09.2020 19:00:00 13,3 13,0 - - 5 3 - - NNW 1013,3 50 1,0
28.09.2020 18:00:00 14,3 14,3 - - 8 4 - - WSW 1012,4 1,7 0,8
28.09.2020 17:00:00 14,2 14,1 - - 11 6 - - SW 1012,3 1,8 0,0
28.09.2020 16:00:00 14,0 13,8 - - 9 5 - - WSW 1012,4 3,4 0,0
28.09.2020 15:00:00 13,8 13,6 - - 13 7 - - WSW 1012,8 3,4 0,2
28.09.2020 14:00:00 13,6 13,5 - - 15 8 - - SW 1013,1 3,8 0,0
28.09.2020 13:00:00 13,4 13,3 - - 13 7 - - WSW 1013,4 2,4 0,0
28.09.2020 12:00:00 12,1 12,1 - - 9 5 - - S 1013,8 6 0,0
28.09.2020 11:00:00 10,9 10,9 - - 11 6 - - SW 1014,0 1,0 0,0
28.09.2020 10:00:00 9,6 9,6 13,0 13,2 5 3 - - SW 1014,3 0,4 0,0
28.09.2020 09:00:00 8,3 8,2 - - 8 4 - - SW 1014,3 1,4 0,0
28.09.2020 08:00:00 7,7 7,3 - - 5 3 - - SSW 1014,3 3,7 0,0
28.09.2020 07:00:00 7,4 7,1 - - 4 2 - - SSW 1014,2 26 0,0
28.09.2020 06:00:00 7,3 7,3 - - 5 3 - - S 1014,5 35 0,0
28.09.2020 05:00:00 2,5 2,4 - - 4 2 - - S 1015,5 17 0,0
28.09.2020 04:00:00 2,7 2,7 - - 4 2 - - SSE 1015,7 40 0,0
28.09.2020 03:00:00 2,2 2,0 - - 4 2 - - SSW 1016,4 28 0,0
28.09.2020 02:00:00 1,8 1,7 - - 5 3 - - S 1017,2 22 0,0
28.09.2020 01:00:00 2,2 2,2 - - 5 3 - - S 1017,6 13 0,0
28.09.2020 00:00:00 1,8 1,7 - - 4 2 - - SSE 1017,6 30 0,0
27.09.2020 23:00:00 1,5 1,4 - - 2 1 - - SE 1017,5 22 0,0
27.09.2020 22:00:00 1,6 1,3 - - 2 1 - - SE 1017,9 26 0,0
27.09.2020 21:00:00 4,4 3,8 - - 0 0 - - N 1017,3 21 0,0
27.09.2020 20:00:00 6,2 4,6 - - 2 1 - - NNW 1016,8 45 0,0
27.09.2020 19:00:00 8,9 5,6 - - 4 2 - - NNW 1016,1 45 0,0
27.09.2020 18:00:00 12,0 5,4 - - 4 2 - - WNW 1015,7 40 0,0
27.09.2020 17:00:00 13,3 6,3 - - 5 3 - - NNW 1015,3 40 0,0
27.09.2020 16:00:00 16,2 5,4 - - 4 2 - - NW 1015,1 30 0,0
27.09.2020 15:00:00 15,5 3,7 - - 4 2 - - NNW 1015,4 35 0,0
27.09.2020 14:00:00 14,2 4,3 - - 5 3 - - N 1016,0 40 0,0
27.09.2020 13:00:00 13,4 4,2 - - 5 3 - - N 1016,2 27 0,0
27.09.2020 12:00:00 14,0 5,7 - - 5 3 - - NW 1016,2 35 0,0
27.09.2020 11:00:00 12,3 5,7 - - 5 3 - - NNW 1016,8 27 0,0
27.09.2020 10:00:00 10,8 6,6 - - 4 2 - - NNW 1017,0 19 0,0
27.09.2020 09:00:00 7,2 5,5 - - 0 0 - - N 1017,5 25 0,0
27.09.2020 08:00:00 1,6 1,1 - - 0 0 - - N 1018,1 35 0,0
27.09.2020 07:00:00 2,9 1,3 - - 2 1 - - SSW 1017,7 30 0,0
27.09.2020 06:00:00 5,6 4,5 - - 5 3 - - N 1017,6 30 0,0
27.09.2020 05:00:00 4,8 3,6 - - 2 1 - - N 1017,7 50 0,0
27.09.2020 04:00:00 6,2 4,6 - - 4 2 - - NNE 1018,1 45 0,0
27.09.2020 03:00:00 7,6 5,0 - - 8 4 - - NNW 1018,0 50 0,0
27.09.2020 02:00:00 5,8 4,8 - - 4 2 - - N 1018,5 35 0,0
27.09.2020 01:00:00 2,9 2,0 - - 2 1 - - ENE 1019,0 30 0,0
27.09.2020 00:00:00 3,5 2,0 - - 4 2 - - SE 1018,9 35 0,0
26.09.2020 23:00:00 6,0 3,8 - - 2 1 - - N 1018,5 40 0,0
26.09.2020 22:00:00 7,3 4,3 - - 2 1 - - NNW 1018,5 45 0,0
26.09.2020 21:00:00 7,9 4,2 - - 4 2 - - N 1018,5 40 0,0
26.09.2020 20:00:00 8,0 3,9 - - 5 3 - - N 1017,9 35 0,0
26.09.2020 19:00:00 8,6 3,5 - - 5 3 - - N 1017,3 50 0,0
26.09.2020 18:00:00 9,5 2,6 - - 8 4 - - N 1017,1 35 0,0
26.09.2020 17:00:00 9,9 1,9 - - 15 8 - - NNE 1016,4 50 0,0
26.09.2020 16:00:00 11,6 2,8 - - 11 6 - - N 1015,5 45 0,0
26.09.2020 15:00:00 11,6 2,3 - - 13 7 - - N 1014,9 50 0,0
26.09.2020 14:00:00 11,2 2,8 - - 15 8 - - N 1015,3 45 0,0
26.09.2020 13:00:00 10,3 1,3 - - 11 6 - - N 1015,5 20 0,0
26.09.2020 12:00:00 9,6 2,7 - - 15 8 - - N 1015,8 35 0,0
26.09.2020 11:00:00 9,0 1,7 - - 13 7 - - N 1015,5 35 0,0
26.09.2020 10:00:00 8,7 3,0 - - 8 4 - - N 1015,2 27 0,0
26.09.2020 09:00:00 5,3 4,1 - - 4 2 - - NNE 1015,5 29 0,0
26.09.2020 08:00:00 0,6 0,5 - - 2 1 - - NW 1015,9 45 0,0
26.09.2020 07:00:00 0,5 0,4 - - 2 1 - - NE 1015,6 40 0,0
26.09.2020 06:00:00 0,3 -0,1 - - 2 1 - - ENE 1015,5 27 0,2
26.09.2020 05:00:00 1,6 1,1 - - 2 1 - - NE 1015,3 35 0,0
26.09.2020 04:00:00 3,6 2,8 - - 4 2 - - N 1014,9 28 0,0
26.09.2020 03:00:00 4,2 2,8 - - 4 2 - - NE 1015,0 28 0,0
26.09.2020 02:00:00 4,6 3,4 - - 4 2 - - NW 1014,6 24 0,0
26.09.2020 01:00:00 5,9 3,4 - - 8 4 - - NNW 1014,6 30 0,0
26.09.2020 00:00:00 6,2 2,9 - - 8 4 - - NNW 1014,8 30 0,0
25.09.2020 23:00:00 6,3 4,0 - - 5 3 - - NW 1014,9 30 0,0
25.09.2020 22:00:00 6,5 4,6 - - 5 3 - - NNW 1014,6 23 0,0
25.09.2020 21:00:00 6,7 4,9 - - 5 3 - - N 1014,3 35 0,0
25.09.2020 20:00:00 7,0 5,1 - - 8 4 - - NNW 1013,9 30 0,2
25.09.2020 19:00:00 7,0 5,5 - - 8 4 - - NNW 1013,7 50 0,8
25.09.2020 18:00:00 9,8 5,7 - - 8 4 - - NW 1012,3 24 0,0
25.09.2020 17:00:00 11,2 4,7 - - 15 8 - - NNW 1011,5 45 0,0
25.09.2020 16:00:00 11,8 5,3 - - 9 5 - - NW 1011,5 30 0,0
25.09.2020 15:00:00 11,4 6,4 - - 11 6 - - NNW 1011,2 30 0,0
25.09.2020 14:00:00 12,4 5,1 - - 9 5 - - NNW 1010,2 40 0,0
25.09.2020 13:00:00 12,5 6,2 - - 11 6 - - NNW 1009,4 40 0,0
25.09.2020 12:00:00 11,6 3,5 - - 13 7 - - NNW 1009,0 20 0,0
25.09.2020 11:00:00 10,6 4,2 - - 13 7 - - NNW 1008,5 30 0,0
25.09.2020 10:00:00 9,5 5,1 13,9 13,7 13 7 - - NNW 1008,0 20 0,0
25.09.2020 09:00:00 7,7 5,4 - - 8 4 - - NNW 1007,1 40 0,0
25.09.2020 08:00:00 4,6 4,0 - - 2 1 - - NNW 1006,4 40 0,0
25.09.2020 07:00:00 4,4 4,1 - - 2 1 - - NW 1005,1 26 0,0
25.09.2020 06:00:00 5,3 5,3 - - 4 2 - - NNW 1003,9 50 0,0
25.09.2020 05:00:00 4,0 3,9 - - 2 1 - - NW 1002,8 30 0,0
25.09.2020 04:00:00 2,4 2,4 - - 2 1 - - WNW 1002,2 40 0,0
25.09.2020 03:00:00 0,9 0,8 - - 0 0 - - N 1001,2 50 0,0
25.09.2020 02:00:00 0,9 0,8 - - 2 1 - - WSW 1000,3 50 0,0
25.09.2020 01:00:00 1,9 1,9 - - 2 1 - - SSE 999,1 35 0,2
25.09.2020 00:00:00 1,8 1,7 - - 4 2 - - ENE 998,2 30 0,0
24.09.2020 23:00:00 2,8 2,5 - - 2 1 - - NE 997,2 0,1 0,0

tt = temperature
td = dewpoint
tt -20cm = temperature -20cm
tt -100cm = temperature -100cm
ff = wind speed
fx = gusts
dd = wind direction
ppp = reduced air pressure
vv = visibility
rr = precipitation

Next stations